This is the latest recevied weather packets stored in our database for station/object IV3CGM-13. If no packets are shown the sender has not sent any weather packets the latest 10 day(s).
| Time | Temp. | Humidity | Pressure | Rain* | Wind** | Luminosity | Snow |
|---|---|---|---|---|---|---|---|
| 1777765767 | 11.67° C | 71% | 1020.1 hPa | 0 mm | - | 0 W/m² | - |
| 1777765076 | 11.67° C | 73% | 1020.2 hPa | 0 mm | - | 0 W/m² | - |
| 1777764389 | 12.22° C | 73% | 1020.3 hPa | 0 mm | - | 0 W/m² | - |
| 1777763652 | 12.22° C | 71% | 1020.3 hPa | 0 mm | - | 0 W/m² | - |
| 1777762951 | 12.22° C | 73% | 1020.4 hPa | 0 mm | - | 0 W/m² | - |
| 1777762264 | 12.78° C | 71% | 1020.3 hPa | 0 mm | - | 0 W/m² | - |
| 1777761576 | 12.78° C | 67% | 1020.3 hPa | 0 mm | - | 0 W/m² | - |
| 1777760889 | 12.78° C | 70% | 1020.4 hPa | 0 mm | - | 0 W/m² | - |
| 1777760153 | 12.78° C | 66% | 1020.4 hPa | 0 mm | - | 0 W/m² | - |
| 1777759452 | 13.33° C | 65% | 1020.4 hPa | 0 mm | - | 0 W/m² | - |
| 1777758764 | 13.89° C | 65% | 1020.5 hPa | 0 mm | - | 0 W/m² | - |
| 1777758077 | 13.89° C | 66% | 1020.5 hPa | 0 mm | - | 0 W/m² | - |
| 1777757389 | 13.89° C | 64% | 1020.4 hPa | 0 mm | - | 0 W/m² | - |
| 1777756653 | 14.44° C | 62% | 1020.5 hPa | 0 mm | - | 0 W/m² | - |
| 1777755952 | 14.44° C | 64% | 1020.5 hPa | 0 mm | - | 0 W/m² | - |
| 1777755264 | 14.44° C | 60% | 1020.4 hPa | 0 mm | - | 0 W/m² | - |
| 1777754576 | 14.44° C | 62% | 1020.5 hPa | 0 mm | - | 0 W/m² | - |
| 1777753888 | 15° C | 59% | 1020.5 hPa | 0 mm | - | 0 W/m² | - |
| 1777753152 | 14.44° C | 65% | 1020.5 hPa | 0 mm | - | 0 W/m² | - |
| 1777752452 | 14.44° C | 64% | 1020.6 hPa | 0 mm | - | 0 W/m² | - |
| 1777751764 | 14.44° C | 65% | 1020.6 hPa | 0 mm | - | 0 W/m² | - |
| 1777751076 | 14.44° C | 63% | 1020.6 hPa | 0 mm | - | 0 W/m² | - |
| 1777750389 | 14.44° C | 65% | 1020.5 hPa | 0 mm | - | 0 W/m² | - |
| 1777749652 | 14.44° C | 63% | 1020.5 hPa | 0 mm | - | 0 W/m² | - |
| 1777748951 | 14.44° C | 63% | 1020.5 hPa | 0 mm | - | 0 W/m² | - |
* Rain latest hour (hover to see other rain measurements)
** Current wind speed in m/s (hover to see current wind gust speed)